Find Starlink 32243

NORAD ID: 60367 Int'l Des: 2024-138 Owner: SPXS Country: US Constellation: starlink operational
LEOCIRCULAR

現在のビュー

3D地球を読み込み中...

About Starlink 32243

Starlink 32243 (NORAD 60367) is a starlink constellation satellite (v2 mini) launched Aug 4, 2024 by SPXS of US. It operates in LEO, CIRCULAR orbit with a mass of 730.00 kg.

次回通過

Passes for default location (London). Set your location on the main map for personalized predictions.

高度履歴

Loading altitude history...

軌道要素

1 60367U 24138N 26265.74217062 -.00001008 00000-0 -20720-4 0 9996
2 60367 53.1587 113.1480 0001018 91.8487 268.2631 15.31705882120818
Epoch: Sep 22, 2026 • Age: 11 hours

現在のステータス

高度 474.7 km
遠地点 / 近地点 N/A
速度 7.63 km/s
衛星直下点 44.60°N, 80.61°E
打ち上げ日 Aug 4, 2024
運用期間 2.1 years
タイプ internet

技術仕様

分類 Payload
質量 730.00 kg
乾燥質量 700.00 kg
長さ 0.30 m
スパン 29.00 m
形状 ? Box + pan
製造者 SPXS
バスタイプ Starlink V2M
フェーズステータス In Orbit
所有者/国 SPXS/US

Most Searched